"TOA5","MOW","CPU:UNC_MeetingWaters","DataHourly"
"TIMESTAMP","SondeTempC","SpCond","DOSat","DOmg","pH","Turb","BattVolt_Min"
"TS","","","","","","",""
"","Smp","Smp","Smp","Smp","Smp","Smp","Min"
"2006-01-12 14:00:00",14.6300001144,0.00899999961257,116.300003052,11.8299999237,8.14000034332,26.2999992371,12.9600000381
"2006-01-12 15:00:00",14.529999733,0.00899999961257,115.599998474,11.779999733,8.15999984741,22.7000007629,12.6700000763
"2006-01-12 16:00:00",14.4899997711,0.00899999961257,113.0,11.5200004578,8.40999984741,19.6000003815,12.7100000381
"2006-01-12 17:00:00",14.5,0.00899999961257,111.099998474,11.3299999237,8.40999984741,21.1000003815,12.6800003052
"2006-01-12 18:00:00",14.220000267,0.00899999961257,109.199996948,11.1999998093,8.30000019073,41.0999984741,12.6199998856
"2006-01-12 19:00:00",13.2899999619,0.00899999961257,111.300003052,11.6599998474,8.31999969482,44.5,12.5600004196
"2006-01-12 20:00:00",12.6999998093,0.00899999961257,114.5,12.1400003433,8.27999973297,53.7999992371,12.529999733
"2006-01-12 21:00:00",12.0,0.00899999961257,115.099998474,12.4099998474,8.28999996185,56.2000007629,12.5100002289
"2006-01-12 22:00:00",11.3900003433,0.00899999961257,115.5,12.6199998856,8.28999996185,50.0999984741,12.5
"2006-01-12 23:00:00",10.5600004196,0.00999999977648,116.199996948,12.9399995804,8.27999973297,42.7999992371,12.4899997711
"2006-01-13 00:00:00",10.4499998093,0.00999999977648,115.900001526,12.9399995804,8.27000045776,37.2000007629,12.4899997711
"2006-01-13 01:00:00",9.59000015259,0.00999999977648,116.099998474,13.2399997711,8.26000022888,30.5,12.4799995422
"2006-01-13 02:00:00",10.5399999619,0.00999999977648,108.199996948,12.0600004196,8.44999980927,38.5,12.470000267
"2006-01-13 03:00:00",10.2700004578,0.00999999977648,115.699996948,12.9799995422,8.44999980927,31.3999996185,12.470000267
"2006-01-13 04:00:00",10.25,0.00999999977648,116.300003052,13.0500001907,8.43000030518,38.7000007629,12.470000267
"2006-01-13 05:00:00",10.1599998474,0.00999999977648,116.099998474,13.0500001907,8.39999961853,28.7999992371,12.4600000381
"2006-01-13 06:00:00",10.2399997711,0.00999999977648,116.099998474,13.029999733,8.39000034332,31.1000003815,12.470000267
"2006-01-13 07:00:00",10.1700000763,0.00999999977648,116.099998474,13.0600004196,8.39999961853,41.0999984741,12.4499998093
"2006-01-13 08:00:00",9.96000003815,0.00999999977648,116.300003052,13.1400003433,8.36999988556,36.2999992371,12.4499998093
"2006-01-13 09:00:00",10.25,0.00999999977648,116.5,13.0799999237,8.34000015259,30.5,12.4499998093
"2006-01-13 10:00:00",10.7899999619,0.00999999977648,116.400001526,12.8999996185,8.31999969482,25.1000003815,12.470000267
"2006-01-13 11:00:00",11.6899995804,0.00999999977648,116.099998474,12.6000003815,8.32999992371,24.1000003815,12.5100002289
"2006-01-13 12:00:00",12.5799999237,0.00999999977648,115.800003052,12.3100004196,8.30000019073,22.7000007629,12.5699996948
"2006-01-13 13:00:00",13.3299999237,0.00999999977648,115.199996948,12.0500001907,8.17000007629,22.0,12.6099996567
"2006-01-13 14:00:00",14.9799995422,0.00999999977648,114.0,11.5,7.94000005722,19.1000003815,12.8500003815
"2006-01-13 15:00:00",15.220000267,0.00999999977648,113.699996948,11.4200000763,7.44000005722,18.6000003815,12.7700004578
"2006-01-13 16:00:00",15.6000003815,0.00899999961257,113.300003052,11.279999733,6.61000013351,18.2000007629,12.75
"2006-01-13 17:00:00",15.4200000763,0.00899999961257,113.300003052,11.3199996948,6.28999996185,17.2999992371,12.6700000763
"2006-01-13 18:00:00",14.8500003815,0.00899999961257,113.300003052,11.4600000381,6.36000013351,18.0,12.5900001526
"2006-01-13 19:00:00",14.3400001526,0.00899999961257,113.5,11.6099996567,6.46999979019,18.1000003815,12.5600004196
"2006-01-13 20:00:00",14.4200000763,0.00800000037998,113.300003052,11.5699996948,6.48999977112,17.3999996185,12.529999733
"2006-01-13 21:00:00",14.9799995422,0.00800000037998,112.800003052,11.3800001144,6.42000007629,18.7999992371,12.5
"2006-01-13 22:00:00",14.6899995804,0.00700000021607,112.5,11.4200000763,6.55999994278,18.8999996185,12.4899997711
"2006-01-13 23:00:00",14.5200004578,0.00800000037998,107.400001526,10.9499998093,6.53000020981,27.0,12.4799995422
"2006-01-14 00:00:00",14.6000003815,0.00800000037998,101.699996948,10.3400001526,6.76000022888,23.8999996185,12.4799995422
"2006-01-14 01:00:00",15.0699996948,0.146999999881,105.699996948,10.6300001144,8.52000045776,1333.0,12.470000267
"2006-01-14 02:00:00",14.6199998856,0.111000001431,105.0,10.6700000763,8.56000041962,404.0,12.4600000381
"2006-01-14 03:00:00",14.2299995422,0.111000001431,103.5,10.6099996567,8.38000011444,318.299987793,12.4499998093
"2006-01-14 04:00:00",13.6099996567,0.00999999977648,101.800003052,10.5799999237,8.23999977112,242.399993896,12.4499998093
"2006-01-14 05:00:00",11.9300003052,0.00700000021607,99.8000030518,10.7700004578,8.25,167.0,12.4399995804
"2006-01-14 06:00:00",9.80000019073,0.00700000021607,98.5999984741,11.1800003052,8.25,138.5,12.4300003052
"2006-01-14 07:00:00",8.77000045776,0.00700000021607,112.800003052,13.1099996567,8.22999954224,96.4000015259,12.4300003052
"2006-01-14 08:00:00",7.82000017166,0.00700000021607,114.400001526,13.6099996567,8.21000003815,81.1999969482,12.4099998474
"2006-01-14 09:00:00",6.46999979019,0.00700000021607,114.699996948,14.1099996567,8.09000015259,65.1999969482,12.4099998474
"2006-01-14 10:00:00",6.92999982834,0.00600000005215,115.5,14.0500001907,7.84000015259,57.9000015259,12.4099998474
"2006-01-14 11:00:00",7.48999977112,0.00499999988824,115.699996948,13.8800001144,6.32000017166,47.7999992371,12.5699996948
"2006-01-14 12:00:00",8.64000034332,0.00400000018999,115.199996948,13.4399995804,5.96999979019,37.9000015259,12.720000267
"2006-01-14 13:00:00",8.22999954224,0.00400000018999,115.300003052,13.5699996948,5.17999982834,33.0999984741,12.6800003052
"2006-01-14 14:00:00",8.22000026703,0.00200000009499,115.300003052,13.5799999237,5.34999990463,28.7000007629,12.6300001144
"2006-01-14 15:00:00",8.48999977112,0.0,115.300003052,13.4899997711,5.44999980927,26.1000003815,12.6800003052
"2006-01-14 16:00:00",8.55000019073,0.0,115.5,13.5,5.13000011444,23.6000003815,12.6300001144
"2006-01-14 17:00:00",8.06000041962,0.0,115.599998474,13.6800003052,5.48000001907,22.7999992371,12.5600004196
"2006-01-14 18:00:00",7.53000020981,0.0,115.900001526,13.8900003433,5.53000020981,21.3999996185,12.5200004578
"2006-01-14 19:00:00",6.71999979019,0.0,116.199996948,14.2100000381,5.42999982834,20.8999996185,12.4799995422
"2006-01-14 20:00:00",5.78999996185,0.0,116.900001526,14.6300001144,5.15999984741,19.7000007629,12.4300003052
"2006-01-14 21:00:00",4.88999986649,0.0,117.199996948,15.0100002289,5.90999984741,18.3999996185,12.4099998474
"2006-01-14 22:00:00",4.34999990463,0.0,117.300003052,15.2399997711,5.94000005722,19.1000003815,12.3900003433
"2006-01-14 23:00:00",3.98000001907,0.0,117.599998474,15.4200000763,6.48000001907,18.7000007629,12.3800001144
"2006-01-15 00:00:00",3.47000002861,0.0,117.699996948,15.6499996185,6.28000020981,17.2000007629,12.3699998856
"2006-01-15 01:00:00",3.29999995232,0.0,117.800003052,15.7399997711,6.03999996185,16.7999992371,12.3699998856
"2006-01-15 02:00:00",3.01999998093,0.0,118.0,15.8800001144,6.26999998093,16.6000003815,12.3599996567
"2006-01-15 03:00:00",2.93000006676,0.0,118.099998474,15.9399995804,6.05000019073,16.5,12.3500003815
"2006-01-15 04:00:00",2.5,0.0,118.400001526,16.1599998474,6.59000015259,15.5,12.3500003815
"2006-01-15 05:00:00",2.28999996185,0.0,118.300003052,16.2399997711,6.32000017166,16.2999992371,12.3400001526
"2006-01-15 06:00:00",2.03999996185,0.0,118.5,16.3700008392,6.48999977112,15.1000003815,12.3299999237
"2006-01-15 07:00:00",1.99000000954,0.0,118.300003052,16.3700008392,6.92000007629,17.7999992371,12.3299999237
"2006-01-15 08:00:00",1.53999996185,0.0,118.400001526,16.5900001526,7.15000009537,14.1999998093,12.3199996948
"2006-01-15 09:00:00",1.24000000954,0.0,118.599998474,16.7399997711,7.05999994278,15.8000001907,12.3199996948
"2006-01-15 10:00:00",2.24000000954,0.0,119.300003052,16.3899993896,6.05999994278,13.8000001907,12.3299999237
"2006-01-15 11:00:00",3.57999992371,0.0,118.5,15.6999998093,5.86000013351,15.5,12.5600004196
"2006-01-15 12:00:00",4.86999988556,0.0,118.199996948,15.1499996185,5.76000022888,15.1000003815,12.5
"2006-01-15 13:00:00",7.96999979019,0.0,117.199996948,13.8999996185,4.46999979019,14.8999996185,13.0500001907
"2006-01-15 14:00:00",10.8999996185,0.0,114.599998474,12.6599998474,2.01999998093,14.1000003815,13.2100000381
"2006-01-15 15:00:00",8.14999961853,0.0,117.199996948,13.8299999237,0.0299999993294,14.3000001907,12.7899999619
"2006-01-15 16:00:00",8.27000045776,0.0,117.099998474,13.779999733,-0.189999997616,13.5,12.7299995422
"2006-01-15 17:00:00",8.26000022888,0.0,117.199996948,13.7899999619,0.430000007153,13.8000001907,12.6999998093
"2006-01-15 18:00:00",7.57000017166,0.0,117.300003052,14.0399999619,3.20000004768,13.5,12.6199998856
"2006-01-15 19:00:00",6.01000022888,0.0,117.5,14.6300001144,6.51999998093,13.3999996185,12.5699996948
"2006-01-15 20:00:00",5.67000007629,0.0,117.800003052,14.7899999619,6.84999990463,14.3000001907,12.5200004578
"2006-01-15 21:00:00",5.05999994278,0.0,117.900001526,15.0399999619,6.88999986649,13.8999996185,12.5
"2006-01-15 22:00:00",4.69999980927,0.0,117.900001526,15.1800003052,6.80999994278,14.1999998093,12.4600000381
"2006-01-15 23:00:00",4.76999998093,0.0,118.0,15.1599998474,6.76000022888,14.6000003815,12.4300003052
"2006-01-16 00:00:00",4.96999979019,0.0,118.0,15.0799999237,6.75,14.3000001907,12.4099998474
"2006-01-16 01:00:00",4.86000013351,0.0,118.0,15.1300001144,6.44999980927,14.0,12.3900003433
"2006-01-16 02:00:00",4.96999979019,0.0,117.699996948,15.0399999619,6.34000015259,13.6999998093,12.3699998856
"2006-01-16 03:00:00",5.05000019073,0.0,117.900001526,15.029999733,6.78999996185,14.1999998093,12.3699998856
"2006-01-16 04:00:00",4.17000007629,0.0,117.599998474,15.3500003815,6.86999988556,14.0,12.3599996567
"2006-01-16 05:00:00",3.68000006676,0.0,117.599998474,15.5600004196,7.07000017166,13.8999996185,12.3500003815
"2006-01-16 06:00:00",2.36999988556,0.0,118.199996948,16.1900005341,7.09999990463,14.6000003815,12.3400001526
"2006-01-16 07:00:00",2.18000006676,0.0,118.300003052,16.2800006866,7.21000003815,14.1999998093,12.3299999237
"2006-01-16 08:00:00",2.72000002861,0.0010000000475,117.900001526,15.9899997711,7.21999979019,14.3999996185,12.3199996948
"2006-01-16 09:00:00",1.67999994755,0.0,118.199996948,16.4899997711,6.57999992371,14.1000003815,12.3299999237
"2006-01-16 10:00:00",3.51999998093,0.0,118.699996948,15.7600002289,6.40000009537,14.1999998093,12.3699998856
"2006-01-16 11:00:00",5.98999977112,0.0,117.900001526,14.6800003052,6.15000009537,13.8999996185,12.5600004196
"2006-01-16 12:00:00",8.11999988556,0.0,116.800003052,13.7899999619,5.96000003815,13.1999998093,12.6099996567
"2006-01-16 13:00:00",9.30000019073,0.0,116.099998474,13.3299999237,5.44999980927,13.3000001907,12.8400001526
"2006-01-16 14:00:00",11.5500001907,0.0,115.199996948,12.5500001907,4.96000003815,12.6999998093,12.7700004578
"2006-01-16 15:00:00",11.5600004196,0.0,115.300003052,12.5500001907,3.44000005722,12.8999996185,12.7700004578
"2006-01-16 16:00:00",11.8900003433,0.0,115.199996948,12.4399995804,2.78999996185,13.1999998093,12.7299995422
"2006-01-16 17:00:00",11.1700000763,0.0,115.5,12.6899995804,2.25,14.5,12.6800003052
"2006-01-16 18:00:00",10.25,0.0,115.400001526,12.9600000381,5.76000022888,14.3000001907,12.6000003815
"2006-01-16 19:00:00",8.69999980927,0.0,115.900001526,13.5,5.94999980927,14.3999996185,12.5600004196
"2006-01-16 20:00:00",7.69000005722,0.0,116.300003052,13.8800001144,6.05999994278,14.6000003815,12.5200004578
"2006-01-16 21:00:00",6.92999982834,0.0,116.5,14.1700000763,6.75,15.0,12.4799995422
"2006-01-16 22:00:00",6.48999977112,0.0,116.699996948,14.3599996567,6.86999988556,15.1000003815,12.4499998093
"2006-01-16 23:00:00",5.94999980927,0.0,116.900001526,14.5699996948,6.94000005722,15.1000003815,12.4200000763
"2006-01-17 00:00:00",5.80999994278,0.0,117.0,14.6400003433,7.03000020981,14.6999998093,12.3900003433
"2006-01-17 01:00:00",5.76999998093,0.0,117.599998474,14.720000267,6.96000003815,14.3000001907,12.3800001144
"2006-01-17 02:00:00",5.90999984741,0.0,117.400001526,14.6499996185,6.51999998093,13.6000003815,12.3699998856
"2006-01-17 03:00:00",6.30000019073,0.0,117.300003052,14.4899997711,6.51999998093,14.6999998093,12.3599996567
"2006-01-17 04:00:00",6.34999990463,0.0,116.900001526,14.4200000763,6.75,14.1000003815,12.3500003815
"2006-01-17 05:00:00",6.94999980927,0.0010000000475,117.099998474,14.2399997711,7.09000015259,15.6999998093,12.3400001526
"2006-01-17 06:00:00",7.26999998093,0.0010000000475,116.800003052,14.0900001526,7.05000019073,14.6999998093,12.3500003815
"2006-01-17 07:00:00",7.61999988556,0.0010000000475,116.599998474,13.9300003052,7.07000017166,13.3999996185,12.3400001526
"2006-01-17 08:00:00",7.84999990463,0.0010000000475,116.599998474,13.8599996567,7.03000020981,13.6000003815,12.3400001526
"2006-01-17 09:00:00",8.17000007629,0.0010000000475,116.5,13.7399997711,6.98000001907,13.8999996185,12.3400001526
"2006-01-17 10:00:00",8.81999969482,0.0010000000475,116.300003052,13.5,7.03000020981,14.5,12.3500003815
"2006-01-17 11:00:00",9.56999969482,0.0010000000475,116.099998474,13.2399997711,7.01000022888,14.6999998093,12.4099998474
"2006-01-17 12:00:00",10.9200000763,0.0010000000475,115.699996948,12.779999733,6.57999992371,14.3000001907,12.5200004578
"2006-01-17 13:00:00",13.4099998474,0.0010000000475,114.800003052,11.9899997711,5.88999986649,15.1000003815,12.720000267
"2006-01-17 14:00:00",16.5,0.0,112.199996948,10.9600000381,5.94999980927,13.5,13.0200004578
"2006-01-17 15:00:00",15.5900001526,0.0,113.800003052,11.3299999237,5.15000009537,13.3000001907,12.7600002289
"2006-01-17 16:00:00",15.3500003815,0.0,113.599998474,11.3699998856,5.59000015259,13.3999996185,12.6999998093
"2006-01-17 17:00:00",15.1999998093,0.0,113.5,11.3999996185,5.86999988556,13.8000001907,12.6300001144
"2006-01-17 18:00:00",14.9399995804,0.0,113.400001526,11.4499998093,5.94999980927,14.6000003815,12.5900001526
"2006-01-17 19:00:00",14.5399999619,0.0,113.5,11.5600004196,6.11999988556,14.3000001907,12.5600004196
"2006-01-17 20:00:00",14.6099996567,0.0,113.400001526,11.529999733,6.26000022888,15.5,12.529999733
"2006-01-17 21:00:00",14.9899997711,0.0,113.099998474,11.4099998474,6.30000019073,13.6999998093,12.5
"2006-01-17 22:00:00",15.2600002289,0.0,112.900001526,11.3199996948,6.36000013351,12.8000001907,12.470000267
"2006-01-17 23:00:00",15.5799999237,0.0,112.699996948,11.2299995422,6.34000015259,13.1000003815,12.4499998093
"2006-01-18 00:00:00",15.7399997711,0.0,112.5,11.1700000763,6.26000022888,12.8999996185,12.4300003052
"2006-01-18 01:00:00",15.1000003815,0.0,112.300003052,11.3000001907,6.63000011444,13.8999996185,12.4200000763
"2006-01-18 02:00:00",14.2600002289,0.247999995947,104.800003052,10.7399997711,8.09000015259,452.899993896,12.4099998474
"2006-01-18 03:00:00",14.6000003815,0.149000003934,105.199996948,10.6899995804,8.31000041962,331.799987793,12.3999996185
"2006-01-18 04:00:00",14.4600000381,0.0960000008345,106.300003052,10.8400001526,8.11999988556,225.399993896,12.3900003433
"2006-01-18 05:00:00",14.0399999619,0.0869999974966,106.800003052,11.0,8.05000019073,110.699996948,12.3800001144
"2006-01-18 06:00:00",13.6099996567,0.0839999988675,107.599998474,11.1899995804,7.88999986649,1344.0,12.3699998856
"2006-01-18 07:00:00",13.1099996567,0.0719999969006,109.400001526,11.5,7.92000007629,251.199996948,12.3599996567
"2006-01-18 08:00:00",12.8000001907,0.0790000036359,109.199996948,11.5500001907,7.86999988556,349.0,12.3599996567
"2006-01-18 09:00:00",12.4600000381,0.0920000001788,107.599998474,11.4799995422,7.84000015259,173.199996948,12.3500003815
"2006-01-18 10:00:00",12.0699996948,0.105999998748,107.300003052,11.5500001907,7.76999998093,151.800003052,12.3599996567
"2006-01-18 11:00:00",11.3699998856,0.0729999989271,107.300003052,11.7299995422,7.67999982834,121.199996948,12.3500003815
"2006-01-18 12:00:00",11.1700000763,0.0599999986589,109.199996948,12.0,7.71999979019,109.300003052,12.5
"2006-01-18 13:00:00",11.4200000763,0.00700000021607,111.5,12.1800003052,7.82999992371,87.3000030518,12.8299999237
"2006-01-18 14:00:00",9.57999992371,0.00600000005215,115.699996948,13.1899995804,7.88999986649,80.1999969482,13.0500001907
"2006-01-18 15:00:00",7.36999988556,0.00499999988824,118.099998474,14.1999998093,7.96999979019,68.0999984741,12.75
"2006-01-18 16:00:00",7.57999992371,0.00499999988824,114.300003052,13.6800003052,7.78999996185,63.2000007629,12.75
"2006-01-18 17:00:00",7.90000009537,0.00400000018999,114.099998474,13.5500001907,7.5,56.0999984741,12.6999998093
"2006-01-18 18:00:00",7.82999992371,0.00400000018999,116.099998474,13.8100004196,6.26999998093,50.7000007629,12.6099996567
"2006-01-18 19:00:00",7.34999990463,0.00400000018999,117.400001526,14.1300001144,7.05000019073,42.7999992371,12.5699996948
"2006-01-18 20:00:00",5.59999990463,0.00400000018999,117.099998474,14.7299995422,7.28000020981,42.7000007629,12.5399999619
"2006-01-18 21:00:00",4.21999979019,0.00400000018999,119.699996948,15.6000003815,7.42999982834,41.7000007629,12.5100002289
"2006-01-18 22:00:00",4.65999984741,0.00400000018999,118.300003052,15.2399997711,7.48999977112,40.7999992371,12.4799995422
"2006-01-18 23:00:00",4.07999992371,0.00400000018999,118.900001526,15.5600004196,7.57999992371,37.0999984741,12.4399995804
"2006-01-19 00:00:00",2.50999999046,0.00400000018999,118.800003052,16.2099990845,7.63999986649,32.2000007629,12.4200000763
"2006-01-19 01:00:00",2.23000001907,0.00400000018999,119.800003052,16.4599990845,7.69999980927,30.6000003815,12.3900003433
"2006-01-19 02:00:00",2.16000008583,0.00400000018999,120.0,16.5200004578,7.71999979019,29.5,12.3699998856
"2006-01-19 03:00:00",1.41999995708,0.00400000018999,119.5,16.7900009155,7.71999979019,30.2000007629,12.3400001526
"2006-01-19 04:00:00",1.05999994278,0.00400000018999,119.800003052,17.0100002289,7.71000003815,27.0,12.3299999237
"2006-01-19 05:00:00",0.769999980927,0.00400000018999,119.400001526,17.0799999237,7.69999980927,25.2000007629,12.3199996948
"2006-01-19 06:00:00",1.61000001431,0.00400000018999,120.199996948,16.7999992371,7.67999982834,21.8999996185,12.3100004196
"2006-01-19 07:00:00",1.69000005722,0.00400000018999,119.599998474,16.6800003052,7.65999984741,19.8999996185,12.2899999619
"2006-01-19 08:00:00",1.23000001907,0.00400000018999,119.199996948,16.8400001526,7.65999984741,19.6000003815,12.279999733
"2006-01-19 09:00:00",1.45000004768,0.00400000018999,120.0,16.8500003815,7.63000011444,17.7000007629,12.2899999619
"2006-01-19 10:00:00",2.72000002861,0.00400000018999,120.800003052,16.3799991608,7.61000013351,17.0,12.3299999237
"2006-01-19 11:00:00",5.05000019073,0.00400000018999,121.599998474,15.5100002289,7.57999992371,16.2999992371,12.6800003052
"2006-01-19 12:00:00",7.26000022888,0.00400000018999,119.199996948,14.3800001144,7.55000019073,15.5,12.6400003433
"2006-01-19 13:00:00",10.5500001907,0.00300000002608,117.800003052,13.1300001144,7.36999988556,15.8000001907,13.0200004578
"2006-01-19 14:00:00",11.3400001526,0.0010000000475,116.699996948,12.7700004578,7.42000007629,14.8999996185,12.8699998856
"2006-01-19 15:00:00",10.6499996185,0.0010000000475,117.099998474,13.0200004578,5.88000011444,15.0,12.75
"2006-01-19 16:00:00",10.3199996948,0.0,117.300003052,13.1499996185,5.61999988556,14.5,12.7399997711
"2006-01-19 17:00:00",10.2899999619,0.0,117.5,13.1800003052,5.88999986649,14.6000003815,12.6899995804
"2006-01-19 18:00:00",9.03999996185,0.0,117.599998474,13.5900001526,6.36999988556,14.5,12.6000003815
"2006-01-19 19:00:00",7.86000013351,0.0010000000475,117.900001526,14.0100002289,6.51999998093,15.1999998093,12.5500001907
"2006-01-19 20:00:00",6.48000001907,0.0010000000475,118.300003052,14.5500001907,6.75,15.3000001907,12.5200004578
"2006-01-19 21:00:00",5.84000015259,0.0010000000475,118.599998474,14.8199996948,6.84000015259,16.2999992371,12.4899997711
"2006-01-19 22:00:00",5.34999990463,0.0010000000475,118.699996948,15.029999733,6.82000017166,15.3000001907,12.4499998093
"2006-01-19 23:00:00",5.09000015259,0.0010000000475,119.099998474,15.1700000763,6.90999984741,17.2999992371,12.4200000763
"2006-01-20 00:00:00",4.55999994278,0.0010000000475,118.800003052,15.3400001526,6.86999988556,18.2999992371,12.3900003433
"2006-01-20 01:00:00",4.19000005722,0.0010000000475,119.099998474,15.529999733,6.86000013351,17.1000003815,12.3699998856
"2006-01-20 02:00:00",4.94999980927,0.0010000000475,119.099998474,15.2399997711,6.88000011444,15.6000003815,12.3599996567
"2006-01-20 03:00:00",4.82999992371,0.0010000000475,119.099998474,15.2700004578,6.65999984741,15.6000003815,12.3400001526
"2006-01-20 04:00:00",4.98000001907,0.0010000000475,118.699996948,15.1700000763,6.67999982834,15.5,12.3299999237
"2006-01-20 05:00:00",4.67000007629,0.0010000000475,118.900001526,15.3199996948,6.69000005722,15.3999996185,12.3299999237
"2006-01-20 06:00:00",5.19000005722,0.0010000000475,119.099998474,15.1400003433,6.51000022888,15.1000003815,12.3199996948
"2006-01-20 07:00:00",4.61000013351,0.0010000000475,118.400001526,15.279999733,6.76999998093,14.1999998093,12.3000001907
"2006-01-20 08:00:00",3.36999988556,0.0010000000475,118.699996948,15.8199996948,7.03999996185,14.1000003815,12.3000001907
"2006-01-20 09:00:00",2.6400001049,0.0010000000475,119.5,16.2399997711,7.23999977112,14.1000003815,12.3000001907
"2006-01-20 10:00:00",4.03000020981,0.0010000000475,120.599998474,15.8000001907,7.42999982834,13.6000003815,12.3100004196
"2006-01-20 11:00:00",6.61999988556,0.0010000000475,119.5,14.6499996185,7.38000011444,15.6000003815,12.6099996567
"2006-01-20 12:00:00",9.09000015259,0.0010000000475,118.199996948,13.6400003433,5.42999982834,13.1999998093,12.5399999619
"2006-01-20 13:00:00",12.9499998093,0.0,116.199996948,12.2600002289,5.36000013351,13.3999996185,12.9899997711
"2006-01-20 14:00:00",15.5200004578,0.0,113.900001526,11.3599996567,5.32000017166,13.5,13.0900001526
"2006-01-20 15:00:00",13.529999733,0.0,116.199996948,12.1000003815,4.71000003815,16.7000007629,12.779999733
"2006-01-20 16:00:00",13.1700000763,0.0,116.199996948,12.1999998093,4.82999992371,23.0,12.8000001907
"2006-01-20 17:00:00",12.5600004196,0.0,116.199996948,12.3599996567,5.53999996185,22.7000007629,12.7399997711
"2006-01-20 18:00:00",11.4899997711,0.0,116.400001526,12.6899995804,6.09999990463,17.8999996185,12.6499996185
"2006-01-20 19:00:00",9.71000003815,0.0,117.099998474,13.3100004196,6.21000003815,16.1000003815,12.6000003815
"2006-01-20 20:00:00",8.65999984741,0.0,117.300003052,13.6700000763,6.67000007629,15.5,12.5699996948
"2006-01-20 21:00:00",7.57000017166,0.0,117.599998474,14.0699996948,6.75,16.2000007629,12.5500001907
"2006-01-20 22:00:00",6.92000007629,0.0,117.599998474,14.3000001907,6.90000009537,16.7999992371,12.5200004578
"2006-01-20 23:00:00",6.55999994278,0.0010000000475,117.699996948,14.4499998093,7.03999996185,17.3999996185,12.5
"2006-01-21 00:00:00",6.13999986649,0.0010000000475,118.199996948,14.6700000763,7.09000015259,17.8999996185,12.470000267
"2006-01-21 01:00:00",6.61000013351,0.0010000000475,117.800003052,14.4399995804,7.09999990463,16.8999996185,12.4499998093
"2006-01-21 02:00:00",5.86999988556,0.0010000000475,117.800003052,14.720000267,7.01999998093,16.2999992371,12.4300003052
"2006-01-21 03:00:00",5.46000003815,0.0010000000475,117.900001526,14.8900003433,7.0,16.7999992371,12.4099998474
"2006-01-21 04:00:00",5.36999988556,0.0010000000475,118.099998474,14.9499998093,7.11000013351,18.0,12.3900003433
"2006-01-21 05:00:00",4.92000007629,0.0010000000475,118.300003052,15.1400003433,6.92000007629,18.0,12.3699998856